This demonstration page uses our WeatherBlox Daily Observations layout. Learn more.

Left ArrowRight Arrow

Hourly Observations for November 6, 2015

Temp ( °F °C ) Dew Point ( °F °C ) Humidity (%) Winds ( mph kmh ) Pressure ( in mb ) Visibility ( mi km ) Precip ( " mm )
12:51 am 00:51 Clear 39 3.9 32 undefined 76 76 N N/A 30.11 1020 10 16.0934 N/A
1:51 am 01:51 Clear 38 3.3 32 undefined 79 79 E 5 7 30.11 1020 10 16.0934 N/A
2:51 am 02:51 Clear 38 3.3 31 -0.6 76 76 N N/A 30.1 1019 10 16.0934 N/A
3:51 am 03:51 Clear 35 1.7 30 -1.1 82 82 NNE 3 6 30.09 1019 10 16.0934 N/A
4:51 am 04:51 Clear 36 2.2 30 -1.1 79 79 N N/A 30.09 1019 10 16.0934 N/A
5:51 am 05:51 Clear 35 1.7 30 -1.1 82 82 NNW 3 6 30.12 1020 10 16.0934 N/A
6:51 am 06:51 Sunny 34 1.1 29 -1.7 82 82 N N/A 30.13 1020 10 16.0934 N/A
7:51 am 07:51 Sunny 41 5 30 -1.1 65 65 SSE 5 7 30.13 1020 10 16.0934 N/A
8:51 am 08:51 Sunny 50 10 32 undefined 50 50 S 8 13 30.13 1020 10 16.0934 N/A
9:51 am 09:51 Sunny 54 12.2 28 -2.2 37 37 S 5 7 30.12 1020 10 16.0934 N/A
10:51 am 10:51 Sunny 58 14.4 26 -3.3 29 29 N N/A 30.11 1020 10 16.0934 N/A
11:51 am 11:51 Sunny 62 16.7 23 -5 22 22 N N/A 30.06 1018 10 16.0934 N/A
12:51 pm 12:51 Sunny 65 18.3 20 -6.7 18 18 N N/A 30.02 1017 10 16.0934 N/A
1:51 pm 13:51 Sunny 66 18.9 22 -5.6 19 19 N N/A 29.99 1016 10 16.0934 N/A
2:51 pm 14:51 Sunny 68 20 25 -3.9 20 20 NW 5 7 29.97 1015 10 16.0934 N/A
3:51 pm 15:51 Sunny 67 19.4 27 -2.8 22 22 WNW 7 11 29.98 1015 10 16.0934 N/A
4:51 pm 16:51 Sunny 65 18.3 29 -1.7 26 26 WNW 7 11 29.98 1015 10 16.0934 N/A
5:51 pm 17:51 Clear 58 14.4 30 -1.1 35 35 WNW 6 9 30.01 1016 10 16.0934 N/A
6:51 pm 18:51 Clear 55 12.8 32 undefined 42 42 NW 8 13 30.04 1017 10 16.0934 N/A
7:51 pm 19:51 Clear 51 10.6 32 undefined 48 48 NW 9 15 30.05 1018 10 16.0934 N/A
8:51 pm 20:51 Clear 51 10.6 32 undefined 48 48 NNW 8 13 30.03 1017 10 16.0934 N/A
9:51 pm 21:51 Clear 51 10.6 33 0.6 50 50 NNW 5 7 30.04 1017 10 16.0934 N/A
10:51 pm 22:51 Clear 50 10 34 1.1 54 54 WNW 5 7 30.06 1018 10 16.0934 N/A
11:51 pm 23:51 Clear 43 6.1 32 undefined 65 65 N N/A 30.06 1018 10 16.0934 N/A

Powered by AerisWeather